This is the latest recevied weather packets stored in our database for station/object KI5GCD-13. If no packets are shown the sender has not sent any weather packets the latest 10 day(s).
| Time | Temp. | Humidity | Pressure | Rain* | Wind** | Luminosity | Snow |
|---|---|---|---|---|---|---|---|
| 1777172687 | 16.67° C | 99% | 1005.4 hPa | 1.02 mm | 0 m/s | - | - |
| 1777172387 | 16.67° C | 99% | 1005.9 hPa | 1.02 mm | 0.89 m/s, 231° | - | - |
| 1777172087 | 16.67° C | 99% | 1006 hPa | 0 mm | 0.89 m/s, 240° | - | - |
| 1777171787 | 16.67° C | 99% | 1005.7 hPa | 0 mm | 0.45 m/s, 239° | - | - |
| 1777171487 | 17.22° C | 99% | 1005.5 hPa | 0 mm | 0 m/s | - | - |
| 1777171187 | 17.22° C | 99% | 1005.8 hPa | 0 mm | 0 m/s | - | - |
| 1777170887 | 17.22° C | 99% | 1006 hPa | 0 mm | 0.89 m/s, 230° | - | - |
| 1777170587 | 17.22° C | 99% | 1005.9 hPa | 1.78 mm | 0.45 m/s, 239° | - | - |
| 1777170287 | 17.22° C | 99% | 1005.9 hPa | 1.78 mm | 0 m/s | - | - |
| 1777169987 | 17.22° C | 99% | 1006.3 hPa | 2.79 mm | 0.45 m/s, 226° | - | - |
| 1777169687 | 17.22° C | 99% | 1006.5 hPa | 4.06 mm | 1.34 m/s, 200° | - | - |
| 1777169387 | 17.22° C | 99% | 1006.3 hPa | 1.02 mm | 0.45 m/s, 245° | - | - |
| 1777169087 | 17.22° C | 99% | 1006.3 hPa | 1.78 mm | 0 m/s | - | - |
| 1777168787 | 17.78° C | 99% | 1006.5 hPa | 1.78 mm | 0.45 m/s, 250° | - | - |
| 1777168488 | 17.78° C | 99% | 1005.4 hPa | 1.02 mm | 0 m/s | - | - |
| 1777168187 | 17.78° C | 99% | 1005 hPa | 7.62 mm | 0.45 m/s, 303° | - | - |
| 1777167887 | 17.78° C | 99% | 1005.3 hPa | 9.4 mm | 0.89 m/s, 214° | - | - |
| 1777167587 | 17.78° C | 98% | 1004.9 hPa | 11.94 mm | 0 m/s | - | - |
| 1777167288 | 18.33° C | 97% | 1005.3 hPa | 11.94 mm | 1.34 m/s, 97° | - | - |
| 1777166987 | 18.33° C | 95% | 1006 hPa | 7.11 mm | 1.34 m/s, 186° | - | - |
| 1777166687 | 18.89° C | 94% | 1005.4 hPa | 6.6 mm | 1.34 m/s, 247° | - | - |
| 1777166387 | 18.89° C | 93% | 1004.8 hPa | 3.56 mm | 0.45 m/s, 244° | - | - |
| 1777166087 | 18.89° C | 94% | 1004.5 hPa | 0 mm | 2.68 m/s, 3° | - | - |
| 1777165828 | 18.33° C | 95% | 1004.7 hPa | 0 mm | 3.13 m/s, 353° | - | - |
| 1777165487 | 18.33° C | 97% | 1004.5 hPa | 0 mm | 1.79 m/s, 8° | - | - |
* Rain latest hour (hover to see other rain measurements)
** Current wind speed in m/s (hover to see current wind gust speed)